Location: Newark
(60.0000°N, 100.0000°E)
Time: 12:45:26
(UTC+00:00)

N. Korean satellite - Pass Details

Date: 21 November 2019
Orbit: 456 x 506 km, 97.2° (Epoch: 05 December)

Event Time Altitude Azimuth Distance (km) Brightness Sun altitude
Rises 22:29:55 0° 22° (NNE) 2,623 10.5 -21.7°
Reaches altitude 10° 22:32:21 10° 37° (NE) 1,728 9.8 -21.4°
Maximum altitude 22:35:22 23° 91° (E) 1,111 9.2 -21.0°
Drops below altitude 10° 22:38:21 10° 145° (SE) 1,702 9.8 -20.7°
Sets 22:40:43 0° 161° (SSE) 2,572 10.6 -20.4°
